Location: Unspecified
(0.0000°N, 0.0000°E)
Time: 03:19:21
(UTC+00:00)

SRMSAT - Visible Passes

Search period start: 22 July 2018 00:00
Search period end: 01 August 2018 00:00
Orbit: 848 x 866 km, 20.0° (Epoch: 21 July)

Date Brightness Start Highest point End Pass type
(mag) Time Alt. Az. Time Alt. Az. Time Alt. Az.
22 Jul ? 04:14:33 10° NNW 04:18:19 17° NNE 04:22:06 10° NE visible
22 Jul ? 18:50:06 10° WSW 18:56:07 71° SSE 19:01:54 11° ENE visible
22 Jul ? 20:39:42 10° W 20:43:56 36° NW 20:43:56 36° NW visible
23 Jul ? 04:01:56 12° NNW 04:05:29 19° NNE 04:09:34 10° ENE visible
23 Jul ? 18:37:08 10° WSW 18:43:10 81° SSE 18:49:11 10° ENE visible
23 Jul ? 20:26:55 10° W 20:32:26 37° NNW 20:32:30 37° NNW visible
24 Jul ? 03:50:18 17° NNW 03:52:38 21° NNE 03:57:00 10° ENE visible
24 Jul ? 05:36:20 10° NW 05:42:05 52° NNE 05:47:49 10° E visible
24 Jul ? 18:24:12 10° WSW 18:30:14 88° NNW 18:36:16 10° ENE visible
24 Jul ? 20:14:10 10° W 20:19:32 33° NNW 20:21:01 29° N visible
25 Jul ? 03:38:47 22° N 03:39:46 23° NNE 03:44:23 10° ENE visible
25 Jul ? 05:23:20 10° WNW 05:29:10 60° NNE 05:34:59 10° E visible
25 Jul ? 20:01:28 10° WNW 20:06:38 29° NNW 20:09:29 20° NNE visible
26 Jul ? 03:27:19 26° NNE 03:27:19 26° NNE 03:31:46 10° ENE visible
26 Jul ? 05:10:20 10° WNW 05:16:14 69° NNE 05:22:07 10° ESE visible
26 Jul ? 19:48:47 10° WNW 19:53:44 26° NNW 19:57:52 13° NNE visible
27 Jul ? 03:15:54 24° NE 03:15:54 24° NE 03:19:06 10° ENE visible
27 Jul ? 04:57:56 13° WNW 05:03:19 79° NNE 05:09:14 10° ESE visible
27 Jul ? 19:36:09 10° WNW 19:40:51 24° NNW 19:45:33 10° NE visible
28 Jul ? 03:04:29 19° ENE 03:04:29 19° ENE 03:06:23 10° E visible
28 Jul ? 04:46:32 23° WNW 04:50:23 89° NNE 04:56:19 10° ESE visible
28 Jul ? 19:23:32 10° WNW 19:27:59 21° NNW 19:32:26 10° NNE visible
28 Jul ? 21:16:09 10° NNW 21:16:23 10° NNW 21:16:23 10° NNW visible
29 Jul ? 02:53:04 13° E 02:53:04 13° E 02:53:40 10° E visible
29 Jul ? 04:35:06 38° WNW 04:37:27 80° SSW 04:43:23 10° ESE visible
29 Jul ? 19:10:57 10° WNW 19:15:08 19° NNW 19:19:17 10° NNE visible
29 Jul ? 21:03:48 10° NNW 21:04:30 11° NNW 21:04:30 11° NNW visible
30 Jul ? 04:23:39 60° WSW 04:24:31 70° SSW 04:30:26 10° ESE visible
30 Jul ? 18:58:25 10° NW 19:02:16 17° NNW 19:06:08 10° NNE visible
30 Jul ? 20:51:30 10° NNW 20:52:27 10° N 20:52:31 10° N visible
31 Jul ? 04:12:08 58° S 04:12:08 58° S 04:17:27 10° ESE visible
31 Jul ? 18:45:54 10° NW 18:49:26 16° NNW 18:52:58 10° NNE visible
31 Jul ? 20:39:28 10° N 20:39:40 10° N 20:39:52 10° N visible
